STARLINK-35948

Last updated on Wed Dec 31 2025 00:02:06 GMT+0000 (Coordinated Universal Time)

1 66633U 25271S 25364.55665493 .00071801 00000+0 17892-2 0 9999 2 66633 53.1596 103.0726 0001031 63.3312 296.7798 15.39601494 6957
UTC large
Height (km)
Speed (km/s)
/
Latitude / Longitude
Inclination (degrees)
Orbital Period (minutes)
Azimuth
Elevation
Range (km)
Doppler Factor

Next 0 passes for location: London (51.5072 / 0.1276)

Sorry there are no passes over London.